Munising, MI

9:26 AM EDT on March 29, 2017 (GMT -0400)
Munising

Weather History for KP53 - May, 2014

Change the Weather History Date:

Friday, May 9, 2014

  Actual Average (KISQ) Record (KISQ)
Temperature  
Mean Temperature 62 °F -  
Max Temperature 75 °F 55 °F 78 °F (1987)
Min Temperature 48 °F 38 °F 20 °F (1966)
Degree Days  
Heating Degree Days 4    
Growing Degree Days 12 (Base 50)    
Moisture  
Dew Point 50 °F    
Average Humidity 75    
Maximum Humidity 90    
Minimum Humidity 34    
Precipitation  
Precipitation 0.75 in - - ()
Sea Level Pressure  
Sea Level Pressure 29.53 in    
Wind  
Wind Speed 9 mph (SSW)    
Max Wind Speed 21 mph    
Max Gust Speed 32 mph    
Averages and records for this station are not official NWS values.
T = Trace of Precipitation, MM = Missing Value Source: NWS Daily Summary

Daily Weather History Graph

Daily Weather History Graph

Search for Another Location

Airport or City:

Trip Planner

Search our weather history database for the weather conditions in past years. The results will help you decide how hot, cold, wet, or windy it might be!

Date:

Astronomy

May. 09, 2014 Rise Set
Actual Time 6:20 AM EDT 9:06 PM EDT
Civil Twilight 5:46 AM EDT 9:40 PM EDT
Nautical Twilight 5:02 AM EDT 10:24 PM EDT
Astronomical Twilight 4:11 AM EDT 11:16 PM EDT
Moon 3:45 PM EDT (5/9) 3:42 AM EDT (5/9)
Length of Visible Light 15h 54m
Length of Day
14h 45m
Waxing Gibbous, 73% of the Moon is Illuminated
May 9
Waxing Gibbous
May 14
Full
May 21
Last Quarter
May 28
New
Jun 5
First Quarter

Hourly Weather History & Observations

Time (EDT) Temp. Dew Point Humidity Pressure Visibility Wind Dir Wind Speed Gust Speed Precip Events Conditions
12:56 AM 55.0 °F 52.0 °F 89% 29.70 in - SSW 6.9 mph - 0.50 in   Unknown
1:56 AM 57.0 °F 54.0 °F 89% 29.66 in - SSW 8.1 mph - 0.20 in   Unknown
2:56 AM 55.9 °F 53.1 °F 90% 29.62 in - SSW 4.6 mph - 0.04 in   Unknown
3:56 AM 55.9 °F 52.0 °F 87% 29.62 in - SW 10.4 mph - N/A   Unknown
4:56 AM 54.0 °F 51.1 °F 90% 29.61 in - SW 3.5 mph - N/A   Unknown
5:56 AM 54.0 °F 50.0 °F 86% 29.59 in - South 6.9 mph - N/A   Unknown
6:56 AM 54.0 °F 50.0 °F 86% 29.58 in - South 10.4 mph - N/A   Unknown
7:56 AM 54.0 °F 51.1 °F 90% 29.57 in - South 8.1 mph - 0.01 in   Unknown
8:56 AM 55.9 °F 53.1 °F 90% 29.56 in - South 11.5 mph - N/A   Unknown
9:56 AM 59.0 °F 55.0 °F 87% 29.53 in - SSW 8.1 mph 16.1 mph N/A   Unknown
10:56 AM 61.0 °F 55.9 °F 83% 29.51 in - SSW 6.9 mph 17.3 mph N/A   Unknown
11:56 AM 61.0 °F 55.9 °F 83% 29.49 in - South 8.1 mph 17.3 mph N/A   Unknown
12:56 PM 60.1 °F 55.9 °F 86% 29.48 in - South 6.9 mph - N/A   Unknown
1:56 PM 64.0 °F 57.9 °F 80% 29.44 in - South 9.2 mph - N/A   Unknown
2:56 PM 66.9 °F 59.0 °F 76% 29.42 in - South 9.2 mph 20.7 mph N/A   Unknown
3:56 PM 71.1 °F 57.9 °F 63% 29.39 in - South 13.8 mph 25.3 mph N/A   Unknown
4:56 PM 73.9 °F 55.0 °F 52% 29.38 in - South 13.8 mph 24.2 mph N/A   Unknown
5:56 PM 75.0 °F 45.0 °F 34% 29.39 in - SW 15.0 mph 24.2 mph N/A   Unknown
6:56 PM 66.0 °F 43.0 °F 43% 29.46 in - NNW 17.3 mph 32.2 mph N/A   Unknown
7:16 PM 51.8 °F 42.8 °F 71% 29.47 in - NNW 20.7 mph - N/A   Unknown
7:56 PM 48.0 °F 42.1 °F 80% 29.51 in - Variable 3.5 mph - N/A   Unknown
8:56 PM 57.0 °F 44.1 °F 62% 29.52 in - WNW 9.2 mph - N/A   Unknown
9:56 PM 57.0 °F 42.1 °F 57% 29.56 in - West 10.4 mph 32.2 mph N/A   Unknown
10:56 PM 55.0 °F 41.0 °F 59% 29.58 in - SW 12.7 mph 20.7 mph N/A   Unknown
11:56 PM 54.0 °F 37.9 °F 55% 29.60 in - West 11.5 mph 18.4 mph N/A   Unknown